Regional Weather Roundup
Issued by NWS

Home | Current Version | Previous Version | Graphics & Text | Print | Product List | Glossary On
Versions: 1 2 3 4 5 6 7 8 9 10 11 12 13 14 15 16 17 18 19 20 21 22 23 24 25 26 27 28 29 30 31 32 33 34 35 36 37 38 39 40 41 42 43 44 45 46 47 48 49 50
000
ASUS44 KMEG 031910
RWRTN
TENNESSEE HOURLY STATE WEATHER ROUNDUP
NATIONAL WEATHER SERVICE MEMPHIS TN
200 PM CDT SUN MAY 03 2015

TNZ002-004-019-021-049-052-054-088>092-032000-
WEST TENNESSEE

CITY           SKY/WX    TMP DP  RH WIND       PRES   REMARKS
MEMPHIS INTL   MOSUNNY   80  49  33 VRB3      30.09F
NWS MEMPHIS      N/A     81 N/A N/A MISG        N/A
JACKSON        MOSUNNY   79  48  33 S14       30.10F
DYERSBURG      MOSUNNY   81  43  26 SW9       30.08F
PARIS          SUNNY     75  48  38 S13       30.10F
LEXINGTON      SUNNY     77  46  33 VRB7      30.10F
$$

TNZ008-025-027-028-033-062-065-066-032000-
NORTH MIDDLE TENNESSEE

CITY           SKY/WX    TMP DP  RH WIND       PRES   REMARKS
NASHVILLE      PTSUNNY   79  48  33 S13G20    30.11F
CLARKSVILLE    PTSUNNY   78  49  35 S8        30.10F
SMYRNA         MOSUNNY   78  52  40 VRB6      30.12F
COOKEVILLE     MOSUNNY   79  52  38 VRB5      30.13F
CROSSVILLE     PTSUNNY   73  45  36 VRB5      30.17F
$$

TNZ061-075-076-078-094-096-097-032000-
SOUTH MIDDLE TENNESSEE

CITY           SKY/WX    TMP DP  RH WIND       PRES   REMARKS
FAYETTEVILLE     N/A     75  46  35 S8        30.14F
TULLAHOMA      SUNNY     75  45  33 S12       30.15F
WINCHESTER     MOSUNNY   79  48  34 SE8       30.14F
MCMINNVILLE    SUNNY     79  52  38 SW7       30.14F
COLUMBIA       MOSUNNY   79  55  44 SE7       30.11F
SHELBYVILLE    MOSUNNY   77  54  44 S8        30.14F
$$

TNZ017-018-042-046-047-032000-
NORTHEAST TENNESSEE

CITY           SKY/WX    TMP DP  RH WIND       PRES   REMARKS
TRI CITIES     MOSUNNY   76  41  28 CALM      30.15F
ELIZABETHTON   CLEAR     77  43  29 W7        30.14F
$$

TNZ012-013-036-069-073-074-032000-
CENTRAL EAST TENNESSEE

CITY           SKY/WX    TMP DP  RH WIND       PRES   REMARKS
KNOXVILLE      MOSUNNY   77  44  30 NW9       30.14F
OAK RIDGE      MOSUNNY   79  46  31 CALM      30.16F
GATLINBURG     CLEAR     77  43  29 N5        30.13F
MORRISTOWN     CLEAR     77  39  25 NW7       30.16F
$$

TNZ083-085-099-032000-
SOUTHEAST TENNESSEE

CITY           SKY/WX    TMP DP  RH WIND       PRES   REMARKS
CHATTANOOGA    MOSUNNY   78  47  33 SW8       30.14F
$$

SKY/WX REPORTED AS FAIR MEANS FEW OR NO CLOUDS BELOW
12 THOUSAND FEET.




USA.gov is the U.S. government's official web portal to all federal, state and local government web resources and services.